Date String (YYYY-MM-DD hh:mm:ss) UTC,Instrument flags,Ambient pressure (hPa),Sample flow (lpm),Bypass flow (lpm),Sample temperature (°C),Ambient temperature (°C),ASC tube jacket temperature (°C),LED temperature (°C),Box temperature (°C),Sample RH (%),Span deviation,Mass concentration (μg/m³),Mass concentration (μg/m³),Mass concentration (μg/m³)
DateTimeUTC,F1_M11,P_M11,Q1_M11,Q2_M11,T1_M11,T2_M11,T3_M11,T4_M11,T5_M11,U1_M11,ZSPAN_M11,X0_M11,X2_M11,X1_M11
2022-10-22 06:00:00,,0814.9,5.00,0.00,29.7,28.0,00.0,38.6,31.4,06.4,0000.0,0010.08,0005.07,0004.52
2022-10-22 06:01:00,,0814.5,5.00,0.00,29.7,28.0,00.0,38.6,31.4,06.4,0000.0,0010.08,0005.04,0004.52
2022-10-22 06:02:00,,0814.5,5.00,0.00,29.7,28.0,00.0,38.6,31.4,06.4,0000.0,0009.83,0005.01,0004.52
2022-10-22 06:03:00,,0814.4,5.00,0.00,29.7,28.0,00.0,38.6,31.4,06.4,0000.0,0009.24,0005.00,0004.51
2022-10-22 06:04:00,,0814.3,5.00,0.00,29.7,28.0,00.0,38.6,31.4,06.4,0000.0,0009.03,0004.99,0004.51
2022-10-22 06:05:00,,0814.2,5.00,0.00,29.7,28.0,00.0,38.6,31.4,06.4,0000.0,0009.71,0005.01,0004.49
2022-10-22 06:06:00,,0814.2,5.00,0.00,29.7,27.9,00.0,38.6,31.4,06.4,0000.0,0011.77,0005.08,0004.47
2022-10-22 06:07:00,,0814.3,4.99,0.00,29.6,27.9,00.0,38.7,31.4,06.4,0000.0,0014.78,0005.13,0004.44
2022-10-22 06:08:00,,0814.3,4.99,0.00,29.6,27.8,00.0,38.7,31.3,06.4,0000.0,0015.63,0005.12,0004.42
2022-10-22 06:09:00,,0814.3,5.01,0.00,29.6,27.7,00.0,38.6,31.3,06.5,0000.0,0016.42,0005.11,0004.40
2022-10-22 06:10:00,,0814.2,5.01,0.00,29.6,27.7,00.0,38.6,31.3,06.5,0000.0,0016.85,0005.11,0004.36
2022-10-22 06:11:00,,0814.3,4.99,0.00,29.6,27.7,00.0,38.6,31.3,06.5,0000.0,0016.81,0005.13,0004.34
2022-10-22 06:12:00,,0814.3,4.99,0.00,29.5,27.7,00.0,38.6,31.3,06.5,0000.0,0016.66,0005.17,0004.34
2022-10-22 06:13:00,,0814.3,5.00,0.00,29.5,27.7,00.0,38.6,31.2,06.5,0000.0,0016.53,0005.16,0004.32
2022-10-22 06:14:00,,0814.5,5.00,0.00,29.5,27.6,00.0,38.6,31.2,06.5,0000.0,0016.92,0005.17,0004.30
2022-10-22 06:15:00,,0814.3,4.99,0.00,29.5,27.6,00.0,38.6,31.2,06.5,0000.0,0018.53,0005.12,0004.27
2022-10-22 06:16:00,,0814.4,5.00,0.00,29.5,27.6,00.0,38.6,31.2,06.5,0000.0,0017.74,0005.04,0004.25
2022-10-22 06:17:00,,0814.3,5.02,0.00,29.5,27.6,00.0,38.6,31.2,06.6,0000.0,0015.77,0004.89,0004.22
2022-10-22 06:18:00,,0814.3,5.00,0.00,29.5,27.6,00.0,38.6,31.2,06.6,0000.0,0012.46,0004.78,0004.19
2022-10-22 06:19:00,,0814.5,4.99,0.00,29.4,27.6,00.0,38.5,31.2,06.6,0000.0,0011.39,0004.77,0004.16
2022-10-22 06:20:00,,0814.3,5.00,0.00,29.4,27.6,00.0,38.5,31.1,06.6,0000.0,0010.45,0004.74,0004.14
2022-10-22 06:21:00,,0814.3,5.02,0.00,29.4,27.6,00.0,38.5,31.1,06.6,0000.0,0010.45,0004.73,0004.13
2022-10-22 06:22:00,,0814.3,4.99,0.00,29.4,27.6,00.0,38.5,31.1,06.6,0000.0,0010.52,0004.68,0004.10
2022-10-22 06:23:00,,0814.3,5.00,0.00,29.4,27.5,00.0,38.5,31.1,06.6,0000.0,0010.60,0004.60,0004.06
2022-10-22 06:24:00,,0814.2,5.00,0.00,29.4,27.5,00.0,38.5,31.1,06.6,0000.0,0011.19,0004.54,0004.02
2022-10-22 06:25:00,,0814.2,4.99,0.00,29.4,27.5,00.0,38.5,31.1,06.6,0000.0,0010.99,0004.49,0003.98
2022-10-22 06:26:00,,0814.3,5.00,0.00,29.4,27.5,00.0,38.5,31.1,06.7,0000.0,0009.33,0004.51,0003.96
2022-10-22 06:27:00,,0814.2,5.02,0.00,29.3,27.5,00.0,38.5,31.1,06.7,0000.0,0009.50,0004.55,0003.92
2022-10-22 06:28:00,,0814.3,4.99,0.00,29.3,27.4,00.0,38.5,31.0,06.7,0000.0,0009.89,0004.53,0003.89
2022-10-22 06:29:00,,0814.3,5.01,0.00,29.3,27.4,00.0,38.4,31.0,06.7,0000.0,0010.52,0004.49,0003.86
2022-10-22 06:30:00,,0814.3,5.00,0.00,29.3,27.4,00.0,38.4,31.0,06.7,0000.0,0012.84,0004.46,0003.84
2022-10-22 06:31:00,,0814.1,5.00,0.00,29.3,27.4,00.0,38.4,31.0,06.7,0000.0,0012.85,0004.42,0003.81
2022-10-22 06:32:00,,0814.3,5.01,0.00,29.3,27.4,00.0,38.4,31.0,06.7,0000.0,0013.29,0004.34,0003.78
2022-10-22 06:33:00,,0814.2,5.00,0.00,29.3,27.4,00.0,38.4,31.0,06.7,0000.0,0013.22,0004.30,0003.75
2022-10-22 06:34:00,,0814.4,5.00,0.00,29.2,27.4,00.0,38.4,31.0,06.8,0000.0,0013.09,0004.30,0003.74
2022-10-22 06:35:00,,0814.2,5.00,0.00,29.2,27.4,00.0,38.4,31.0,06.8,0000.0,0012.60,0004.34,0003.74
2022-10-22 06:36:00,,0814.3,5.00,0.00,29.2,27.4,00.0,38.4,30.9,06.8,0000.0,0012.54,0004.35,0003.74
2022-10-22 06:37:00,,0814.4,5.01,0.00,29.2,27.4,00.0,38.3,30.9,06.8,0000.0,0012.55,0004.36,0003.73
2022-10-22 06:38:00,,0814.4,5.00,0.00,29.2,27.4,00.0,38.3,30.9,06.8,0000.0,0012.66,0004.32,0003.73
2022-10-22 06:39:00,,0814.4,5.00,0.00,29.2,27.4,00.0,38.3,30.9,06.8,0000.0,0012.71,0004.31,0003.74
2022-10-22 06:40:00,,0814.6,5.00,0.00,29.2,27.4,00.0,38.3,30.9,06.8,0000.0,0012.26,0004.33,0003.74
2022-10-22 06:41:00,,0814.7,5.00,0.00,29.2,27.4,00.0,38.3,30.9,06.8,0000.0,0010.33,0004.31,0003.73
2022-10-22 06:42:00,,0814.3,4.99,0.00,29.2,27.4,00.0,38.3,30.9,06.8,0000.0,0010.34,0004.30,0003.72
2022-10-22 06:43:00,,0814.3,5.00,0.00,29.2,27.4,00.0,38.3,30.9,06.8,0000.0,0009.38,0004.29,0003.72
2022-10-22 06:44:00,,0814.3,5.00,0.00,29.1,27.4,00.0,38.3,30.9,06.8,0000.0,0009.19,0004.26,0003.71
2022-10-22 06:45:00,,0814.2,4.99,0.00,29.1,27.4,00.0,38.3,30.9,06.9,0000.0,0008.99,0004.23,0003.70
2022-10-22 06:46:00,,0814.2,5.00,0.00,29.1,27.4,00.0,38.3,30.9,06.9,0000.0,0009.31,0004.19,0003.70
2022-10-22 06:47:00,,0814.2,5.02,0.00,29.1,27.4,00.0,38.3,30.9,06.9,0000.0,0009.56,0004.16,0003.69
2022-10-22 06:48:00,,0814.0,4.99,0.00,29.1,27.4,00.0,38.3,30.9,06.9,0000.0,0009.57,0004.14,0003.69
2022-10-22 06:49:00,,0814.1,4.99,0.00,29.1,27.3,00.0,38.2,30.9,06.9,0000.0,0010.06,0004.14,0003.70
2022-10-22 06:50:00,,0814.0,5.00,0.00,29.1,27.3,00.0,38.2,30.9,06.9,0000.0,0009.92,0004.17,0003.70
2022-10-22 06:51:00,,0814.0,5.02,0.00,29.1,27.3,00.0,38.2,30.9,06.9,0000.0,0009.94,0004.20,0003.71
2022-10-22 06:52:00,,0814.0,5.00,0.00,29.1,27.3,00.0,38.2,30.9,06.9,0000.0,0010.21,0004.24,0003.73
2022-10-22 06:53:00,,0814.0,5.00,0.00,29.1,27.3,00.0,38.2,30.9,06.9,0000.0,0010.17,0004.29,0003.74
2022-10-22 06:54:00,,0814.0,5.00,0.00,29.1,27.3,00.0,38.2,30.9,06.9,0000.0,0010.20,0004.32,0003.74
2022-10-22 06:55:00,,0813.9,5.00,0.00,29.1,27.3,00.0,38.2,30.8,06.9,0000.0,0010.79,0004.38,0003.77
2022-10-22 06:56:00,,0813.9,4.99,0.00,29.1,27.3,00.0,38.2,30.8,07.0,0000.0,0011.34,0004.43,0003.79
2022-10-22 06:57:00,,0813.9,4.99,0.00,29.1,27.3,00.0,38.2,30.8,07.0,0000.0,0011.97,0004.48,0003.80
2022-10-22 06:58:00,,0813.9,5.00,0.00,29.1,27.2,00.0,38.2,30.8,07.0,0000.0,0011.78,0004.52,0003.82
2022-10-22 06:59:00,,0813.9,4.99,0.00,29.0,27.2,00.0,38.2,30.8,07.0,0000.0,0012.25,0004.56,0003.83
